Satellite-Ground Cal/Val Site Overpasses Predictions

Prediction of Satellite NPP Overpassing Cal/Val Site: Antarctic Dome C

Ground Cal/Val Site Location: Latitude: -75.10, Longitude: 123.35; Satellite-Ground Site NADIR distance within 100 km.

Table of predicted overpasses for the next 14.0 days since TLE Epoch: 5/24/2019
Interval Starting Time Ending Time Minimum Distance Time Minimum Distance (km)
1 05/27/2019 14:54:54 05/27/2019 14:55:23 05/27/2019 14:55:09 22.44
2 05/28/2019 14:36:12 05/28/2019 14:36:27 05/28/2019 14:36:20 84.65
3 05/29/2019 07:37:45 05/29/2019 07:38:13 05/29/2019 07:37:59 35.69
4 05/30/2019 07:18:59 05/30/2019 07:19:19 05/30/2019 07:19:09 74.26
5 06/01/2019 15:01:15 06/01/2019 15:01:39 06/01/2019 15:01:27 59.61
6 06/02/2019 14:42:26 06/02/2019 14:42:51 06/02/2019 14:42:38 49.57
7 06/03/2019 07:44:08 06/03/2019 07:44:28 06/03/2019 07:44:18 71.07
8 06/04/2019 07:25:15 06/04/2019 07:25:42 06/04/2019 07:25:28 36.83
9 06/06/2019 15:07:43 06/06/2019 15:07:49 06/06/2019 15:07:46 97.55


NCC Satellite Cal/Val Overpasses Prediction Service
